STARLINK-11152, 60194

Orbit data source: Space-Track

STARLINK-11152, 60194 is a payload satellite owned by SpaceX/Seattle (US) in LEO that was launched on Wed, 03 Jul 2024 UTC via an FALCON 9 launch vehicle from the Air Force Eastern Test Range (AFETR). Payload-class satellites include a variety of spacecraft equipped with specific instruments for various scientific and technological missions. These include communications satellites like Starlink; space stations such as the ISS; scientific satellites like the Hubble; Earth observation satellites from companies like Planet Labs, Umbra, and HawkEye 360; GPS; miniature CubeSats for education and research; and military/defense satellites.

Loading next visibility...
Identifier
60194, 2024-124M
Orbit
LEO
Country
Flag of USUS
Related business
Manufacturer
SpaceX/Seattle
Mission
Operational Commercial Communications
Bus & Motor
STARLINK V2MD, Unknown motor
Mass
960 kg wet, ~910 kg dry
Launch date (UTC)
2024-07-03 (1 year ago)
Launch vehicle
FALCON 9
Launch site
Air Force Eastern Test Range (AFETR)
Object type
Payload
Rocket body
Debris
Shape & HBR
Box + 2 Pan, 18.1 m
Radar Cross Section
36.964 m², Large (>1 m²)

Expand to show TLE details & history
Last TLE update: 18 hours ago

TLE from 18 hours ago
0 STARLINK-11152
1 60194U 24124M   25292.15270945 -.00005350  00000-0 -39352-4 0  9997
2 60194  53.1566 139.0123 0001237  81.9326 278.1832 15.69694355 75498
Epoch: 2025-10-19T03:39Z
TLE epoch observation values (Epoch: 2025-10-19T03:39:54.096Z)
Latitude
-0.00004°
Longitude
56.1634°
Altitude
360.568 km
Speed
7.694 km/s
True Right ascension
09h 16m 02s
True Declination
0° 00' 00"
Sunlit
Object was in daylight at epoch
Visualization orbit readout
Latitude
Unknown
Longitude
Unknown
Altitude
Unknown
Speed
Unknown
Apparent Right ascension
Unknown
Apparent Declination
Unknown
Sunlit
N/A
Visualization observer readout
Local Sidereal Time
16:37:48
Azimuth
Unknown
Elevation
Unknown
Doppler factor
Unknown
Orbital elements
Apogee altitude
360.866 km
Perigee altitude
359.199 km
Semi-major axis
6,738.17 km
Eccentricity
0.00012
Inclination
53.1566°
RAAN
139.0123°
Arg. of periapsis
81.9326°
True anomaly
278.16917°
Mean anomaly
278.1832°
Eccentric anomaly
278.17618°
Mean motion
3.92401 °/min
Orbital period
91.74 mins
BSTAR
-0.000039352
Loading maneuver chart data...
Computing Atmospheric mass density...
Loading historical data...
Loading historical data...
Loading historical data...
Loading historical data...
Loading historical data...
Loading historical data...
Loading historical data...

Documentation

Showing up to 5 results
|